Home > Weather > Mehamn > Past weeks

Flag for Norway Past Weather in Mehamn, Norway — Yesterday and Last 2 Weeks

Now
44 °F

Quite cool.


Feels Like: 44 °F
Forecast: 48 / 55 °F
Wind: 1 mph from South

Location: Mehamn

Current Time: May 30, 2016 at 5:01:58 AM

Latest Report: May 30, 2016 at 4:00 AM


Visibility: N/A

Pressure: 30.43 "Hg

Humidity: 80%

Dew Point: 38 °F

Location of MehamnLocation

Past Weather in Mehamn — Graph

°F

Mehamn Temperature Yesterday

Maximum temperature yesterday: 47 °F (at 2:00 PM)
Minimum temperature yesterday: 43 °F (at 11:00 PM)
Average temperature yesterday: 45 °F

High & Low Weather Summary for the Past Weeks

 TemperatureHumidityPressure
High62 °F (May 27, 3:00 PM)91% (May 24, 7:00 AM)30.45 "Hg (May 24, 7:00 AM)
Low33 °F (May 18, 2:00 AM)36% (May 21, 1:00 PM)29.32 "Hg (May 17, 7:00 AM)
Average46 °F68%29.93 "Hg
* Reported May 15 4:00 AM — May 30 3:00 AM, Mehamn, Weather by CustomWeather, © 2016

Note: Actual official high and low records may vary slightly from our data, if they occured in-between our weather recording intervals... More about our weather records

Advertising

Mehamn Weather History for the Previous 24 Hours

Scroll right to see more
 ConditionsComfort  
Time TempWeatherWind HumidityBarometerVisibility
3:00 AM
Mon, May 30
42 °FQuite cool.No wind84%30.43 "HgN/A
2:00 AM42 °FQuite cool.No wind81%30.44 "HgN/A
1:00 AM42 °FQuite cool.1 mph80%30.44 "HgN/A
12:00 AM43 °FQuite cool.1 mph78%30.44 "HgN/A
11:00 PM
Sun, May 29
43 °FQuite cool.5 mph78%30.44 "HgN/A
10:00 PM43 °FQuite cool.7 mph76%30.44 "HgN/A
9:00 PM43 °FQuite cool.7 mph76%30.44 "HgN/A
8:00 PM44 °FQuite cool.7 mph75%30.44 "HgN/A
7:00 PM45 °FQuite cool.6 mph72%30.44 "HgN/A
6:00 PM46 °FCool.7 mph72%30.45 "HgN/A
3:00 PM46 °FCool.5 mph76%30.44 "HgN/A
2:00 PM47 °FCool.5 mph74%30.43 "HgN/A
1:00 PM46 °FCool.3 mph77%30.43 "HgN/A
12:00 PM46 °FCool.5 mph78%30.42 "HgN/A
11:00 AM45 °FCool.5 mph80%30.41 "HgN/A
10:00 AM45 °FCool.2 mph90%30.39 "HgN/A
9:00 AM44 °FQuite cool.3 mph91%30.39 "HgN/A
8:00 AM45 °FQuite cool.5 mph90%30.37 "HgN/A
7:00 AM46 °FCool.3 mph86%30.35 "HgN/A
6:00 AM46 °FCool.5 mph85%30.34 "HgN/A
5:00 AM45 °FCool.3 mph86%30.33 "HgN/A
Weather by CustomWeather, © 2016

See weather overviewHow to use our weather pages